Probability
0 0 0 0 0 0 0 0 0 0 0 0 0 0 0 0 0 0 0 0 0 0 0 0 0 0 0 0 0 0 0 0 0 0 0 0 0 0 0 0 0 0 0 0 0 0 0 0 0
0 0 0 0 0 0 0 0 0 0 0 0 0 0 0 0 0 0 0 0 0 0 0 0 0 0 0 0 0 0 0 0 0 0 0 0 0 0 0 0 0 0 0 0 0 0 0 0 0
0 0 0 0 0 0 0 0 0 0 0 0 0 0 0 0 0 0 0 0 0 0 0 0 0 0 0 0 0 0 0 0 0 0 0 0 0 0 0 0 0 0 0 0 0 0 0 0 0
0 0 0 0 0 0 0 0 0 0 0 0 0 0 0 0 0 0 0 0 0 0 0 0 0 0 0 0 0 0 0 0 0 0 0 0 0 0 0 0 0 0 0 0 0 0 0 0 0
0 0 0 0 0 0 0 0 0 0 0 0 0 0 0 0 0 0 0 0 0 0 0 0 0 0 0 0 0 0 0 0 0 0 0 0 0 0 0 0 0 0 0 0 0 0 0 0 0
0 0 0 0 0 0 0 0 0 0 0 0 0 0 0 0 0 0 0 0 0 0 0 0 0 0 0 0 0 0 0 0 0 0 0 0 0 0 0 0 0 0 0 0 0 0 0 0 0
0 0 0 0 0 0 0 0 0 0 0 0 0 0 0 0 0 0 0 0 0 0 0 0 0 0 0 0 0 0 0 0 0 0 0 0 0 0 0 0 0 0 0 0 0 0 0 0 0
0 0 0 0 0 0 0 0 0 0 0 0 0 0 0 0 0 0 0 0 0 0 0 0 0 0 0 0 0 0 0 0 0 0 0 0 0 0 0 0 0 0 0 0 0 0 0 0 0
0 0 0 0 0 0 0 0 0 0 0 0 0 0 0 0 0 0 0 0 0 0 0 0 0 0 0 0 0 0 0 0 0 0 0 0 0 0 0 0 0 0 0 0 0 0 0 0 0
0 0 0 0 0 0 0 0 0 0 0 0 0 0 0 0 0 0 0 0 0 0 0 0 0 0 0 0 0 0 0 0 0 0 0 0 0 0 0 0 0 0 0 0 0 0 0 0 0
0 0 0 0 0 0 0 0 0 0 0 0 0 0 0 0 0 0 0 0 0 0 0 0 0 0 0 0 0 0 0 0 0 0 0 0 0 0 0 0 0 0 0 0 0 0 0 0 0
0 0 0 0 0 0 0 0 0 0 0 0 0 0 0 0 0 0 0 0 0 0 0 0 0 0 0 0 0 0 0 0 0 0 0 0 0 0 0 0 0 0 0 0 0 0 0 0 0
0 0 0 0 0 0 0 0 0 0 0 0 0 0 0 0 0 0 0 0 0 0 1 1 1 0 0 0 0 0 0 0 0 0 0 0 0 0 0 0 0 0 0 0 0 0 0 0 0
0 0 0 0 0 0 0 0 0 0 0 0 0 0 0 0 0 0 0 0 0 1 2 2 2 1 0 0 0 0 0 0 0 0 0 0 0 0 0 0 0 0 0 0 0 0 0 0 0
0 0 0 0 0 0 0 0 0 0 0 0 0 0 0 0 0 0 0 0 0 2 3 3 3 3 2 1 0 0 0 0 0 0 0 0 0 0 0 0 0 0 0 0 0 0 0 0 0
0 0 0 0 0 0 0 0 0 0 0 0 0 0 0 0 0 0 0 0 1 4 6 5 5 5 5 4 2 0 0 0 0 0 0 0 0 0 0 0 0 0 0 0 0 0 0 0 0
0 0 0 0 0 0 0 0 0 0 0 0 0 0 0 0 0 0 0 1 3 7 9 8 7 8 8 7 5 2 0 0 0 0 0 0 0 0 0 0 0 0 0 0 0 0 0 0 0
0 0 0 0 0 0 0 0 0 0 0 0 0 0 0 0 0 0 1 3 8 11 11 10 10 13 15 16 14 9 4 1 0 0 0 0 0 0 0 0 0 0 0 0 0 0 0 0 0
0 0 0 0 0 0 0 0 0 0 0 0 0 0 0 0 0 0 1 6 12 16 15 16 19 26 35 40 36 25 12 3 0 0 0 0 0 0 0 0 0 0 0 0 0 0 0 0 0
0 0 0 0 0 0 0 0 0 0 0 0 0 0 0 0 0 1 1 6 16 23 27 32 40 50 61 68 62 44 22 7 1 0 0 0 0 0 0 0 0 0 0 0 0 0 0 0 0
0 0 0 0 0 0 0 0 0 0 0 0 0 0 0 0 1 4 9 16 28 40 47 55 65 75 83 87 81 63 37 15 4 1 0 0 0 0 0 0 0 0 0 0 0 0 0 0 0
0 0 0 0 0 0 0 0 0 0 0 0 0 0 0 0 4 15 29 42 54 64 69 74 81 87 90 89 82 69 46 21 6 1 0 0 0 0 0 0 0 0 0 0 0 0 0 0 0
0 0 0 0 0 0 0 0 0 0 0 0 0 0 0 3 12 31 52 67 75 79 80 80 80 78 76 72 64 53 37 18 5 0 0 0 0 0 0 0 0 0 0 0 0 0 0 0 0
0 0 0 0 0 0 0 0 0 0 0 0 0 0 1 5 18 40 62 73 75 77 77 71 63 54 46 40 33 28 21 11 3 0 0 0 0 0 0 0 0 0 0 0 0 0 0 0 0
0 0 0 0 0 0 0 0 0 0 0 0 0 0 1 5 15 32 50 59 62 63 59 50 38 27 18 13 10 9 8 5 2 0 0 0 0 0 0 0 0 0 0 0 0 0 1 1 0
0 0 0 0 0 0 0 0 0 0 0 0 0 0 1 3 6 14 26 35 39 38 33 26 17 9 4 2 1 1 1 1 0 0 0 0 0 0 0 0 0 0 0 0 0 0 1 1 1
0 0 0 0 0 0 0 0 0 0 0 0 0 0 1 1 1 3 9 14 15 13 10 8 5 2 1 0 0 0 0 0 0 0 0 0 0 0 0 0 0 0 0 0 0 0 0 0 0
0 0 0 0 0 0 0 0 0 0 0 0 0 0 0 0 0 1 3 4 3 1 1 1 1 1 0 0 0 0 0 0 0 0 0 0 0 0 0 0 0 0 0 0 0 0 0 0 0
0 0 0 0 0 0 0 0 0 0 0 0 0 0 0 0 0 0 1 1 0 0 0 0 0 0 0 0 0 0 0 0 0 0 0 0 0 0 0 0 0 0 0 0 0 0 0 0 0
0 0 0 0 0 0 0 0 0 0 0 0 0 0 0 0 0 0 1 1 1 0 0 0 0 1 1 1 0 0 0 0 0 0 0 0 0 0 0 0 0 0 0 0 0 0 0 0 0
Wind_Speed
6 3 2 3 6 6 2 1 3 3 4 4 8 10 8 5 3 4 4 12 15 13 10 12 14 13 13 12 12 12 12 11 11 11 12 12 12 11 11 10 10 10 11 11 11 11 10 10 9
3 2 3 4 6 4 0 2 4 3 6 8 8 7 7 5 4 7 6 13 15 14 10 10 14 13 12 12 11 11 11 11 11 11 11 12 12 11 10 10 10 10 10 11 11 11 10 9 9
3 1 3 4 3 5 4 4 5 3 6 7 5 4 6 6 4 5 10 16 14 12 9 10 14 13 12 12 11 11 11 10 10 10 11 11 11 11 10 10 10 10 10 10 10 10 9 9 9
2 3 5 4 1 5 7 6 5 4 5 6 7 5 4 3 4 9 17 16 14 12 10 11 14 13 12 11 11 11 11 10 10 10 11 11 11 10 10 9 9 9 9 9 9 8 7 7 8
3 4 5 3 3 2 4 4 5 5 4 5 7 6 4 2 10 16 16 15 13 11 9 10 14 13 12 11 11 11 11 11 11 11 11 11 11 10 9 9 9 9 9 8 8 6 5 5 6
4 5 4 4 5 2 1 2 5 5 6 7 8 6 2 4 10 13 14 12 13 12 10 9 14 13 12 11 11 11 11 11 11 11 12 11 11 10 9 9 8 8 8 8 7 5 3 3 4
4 4 2 4 5 2 3 5 7 7 7 7 9 7 4 4 8 13 13 12 11 11 10 7 7 9 12 12 11 11 11 12 12 12 12 12 11 10 9 8 8 8 8 8 6 4 2 2 4
5 5 3 4 5 4 2 3 6 7 5 7 7 9 8 8 9 12 12 11 10 9 9 8 6 6 6 7 11 12 12 12 13 13 12 12 11 10 9 7 8 8 8 7 5 3 1 2 3
5 6 2 3 4 6 2 2 2 4 5 3 3 6 12 15 12 12 10 7 9 9 7 8 7 7 6 6 9 10 12 12 12 11 13 10 5 5 5 6 7 7 7 6 4 2 1 2 4
4 4 6 6 5 5 4 1 3 5 6 5 7 8 15 15 14 14 13 11 11 11 10 8 8 8 7 7 5 4 5 6 5 4 6 4 4 3 5 7 8 7 6 5 4 3 3 2 2
4 5 4 5 7 5 3 3 1 8 5 9 15 15 17 15 14 15 15 14 14 13 12 11 10 9 8 5 5 3 3 3 4 6 6 4 3 3 3 2 3 3 4 2 2 2 2 2 1
2 4 5 5 6 3 2 2 1 3 8 15 19 21 20 17 17 16 16 15 13 13 14 13 12 10 8 7 6 5 4 4 4 5 6 4 3 3 3 2 3 2 2 2 2 1 2 2 2
2 3 3 3 3 4 4 3 3 3 5 14 16 17 19 18 16 15 15 14 13 14 14 14 14 12 10 8 6 7 6 6 6 5 6 6 5 5 4 3 3 3 3 3 2 1 1 3 5
4 4 5 5 5 3 4 6 3 5 6 15 17 17 17 18 17 13 13 14 14 15 15 15 15 14 12 10 8 7 7 6 6 5 7 8 7 6 5 5 4 4 4 3 2 2 3 4 5
3 5 7 5 4 4 3 6 5 6 3 11 16 16 16 15 15 15 17 17 16 17 16 16 16 15 14 12 10 8 7 7 6 6 7 9 8 8 7 5 5 5 4 3 2 3 3 4 4
4 4 4 5 7 7 1 7 6 7 4 5 9 11 13 14 15 16 17 17 16 16 16 17 15 15 15 12 10 7 7 7 6 6 5 8 8 8 7 6 6 5 4 3 4 3 3 3 4
4 3 4 5 6 6 2 5 6 7 7 4 4 6 9 11 12 14 16 17 17 17 16 17 15 16 14 12 9 7 7 7 6 5 5 6 7 7 7 6 6 5 4 4 5 3 3 3 4
2 3 4 4 5 4 3 5 8 6 6 5 6 5 5 9 12 12 14 17 17 16 16 16 13 13 12 8 5 4 5 4 4 5 5 6 5 5 5 5 6 5 4 4 4 4 3 3 3
3 2 4 4 3 3 4 7 8 6 4 5 6 7 7 7 8 7 11 15 16 14 14 13 11 11 9 7 6 5 5 4 3 4 5 5 5 5 5 4 5 5 5 6 6 4 4 2 2
2 2 4 4 4 3 5 9 9 7 6 6 7 8 9 8 6 5 7 11 14 14 13 12 11 11 10 7 6 4 4 3 3 3 4 5 5 5 5 6 5 5 4 6 6 5 4 2 2
3 3 4 4 4 3 5 8 7 6 5 6 7 8 8 8 7 5 6 9 11 11 12 10 10 9 8 7 5 4 3 2 1 2 3 5 5 5 5 5 5 5 5 6 6 7 7 4 2
4 5 4 1 1 4 2 6 9 7 9 10 9 7 6 6 5 6 8 9 10 9 9 9 9 9 8 8 7 7 5 4 5 4 3 4 4 5 6 6 6 5 4 6 7 6 5 6 4
6 3 2 1 1 2 2 3 8 7 10 13 13 12 7 4 6 8 11 12 11 11 10 8 9 8 7 7 7 6 4 3 2 2 3 4 4 4 5 6 5 6 5 6 6 5 5 5 5
2 4 4 4 4 2 4 3 5 7 11 15 17 17 14 7 4 8 9 12 11 9 9 7 8 6 6 7 6 6 6 4 3 3 3 3 2 3 5 5 6 6 5 6 6 6 7 5 5
5 5 4 5 3 5 3 2 1 7 11 13 15 17 16 11 5 6 8 10 10 10 9 7 7 6 6 6 5 5 5 5 5 4 4 3 2 2 3 4 5 5 5 6 6 6 6 7 7
4 3 4 4 4 4 3 1 2 6 9 12 13 13 17 17 12 7 4 6 9 10 10 9 8 6 5 5 4 4 4 3 3 4 3 3 3 2 2 3 4 4 5 5 5 4 6 5 6
6 3 2 3 2 2 3 1 2 11 14 16 16 17 17 14 13 10 7 3 2 5 7 7 7 6 5 4 3 3 4 4 3 3 3 2 2 2 2 3 3 3 3 4 5 4 5 5 6
4 3 4 3 0 2 2 3 6 13 15 15 15 15 14 13 11 9 5 4 3 2 3 5 6 6 5 5 4 4 4 5 4 4 3 3 2 2 2 2 3 3 3 3 3 3 3 4 5
6 5 3 1 1 1 0 3 6 10 12 12 12 12 11 10 8 6 4 5 6 3 1 3 5 5 5 5 4 5 4 4 4 4 4 4 3 3 3 3 3 3 3 3 3 3 3 4 4
3 2 1 1 0 0 1 1 7 10 11 10 10 10 11 10 8 6 4 5 6 5 2 4 5 5 4 4 4 4 4 4 4 4 4 4 4 4 3 3 3 3 3 3 3 3 3 3 4
Wind_Direction
295 298 121 81 52 53 94 165 116 53 50 60 84 92 93 83 102 127 142 147 140 149 160 159 156 150 143 137 132 129 126 124 123 122 121 121 118 112 105 102 99 95 91 88 86 86 86 88 89
314 308 100 62 78 79 32 179 104 100 124 120 92 98 94 84 102 110 119 142 143 149 154 157 157 152 148 143 138 135 132 130 128 126 126 126 122 116 111 107 105 100 97 93 91 89 88 87 87
298 286 82 65 109 156 174 199 158 134 120 124 99 72 95 126 124 126 144 142 142 148 150 157 157 155 152 149 145 141 138 137 135 134 132 129 126 121 117 113 109 105 102 98 95 93 92 89 86
7 35 50 61 217 202 180 198 170 126 93 95 103 67 62 129 142 132 141 142 144 147 149 157 158 157 155 154 152 149 146 145 144 142 137 133 130 126 122 118 115 113 109 106 102 96 91 86 81
76 63 40 360 290 213 191 188 153 135 117 99 97 85 47 45 115 131 142 143 143 145 150 158 157 158 157 156 156 155 153 152 150 146 143 139 136 131 126 123 122 121 118 116 112 105 95 82 73
56 62 53 331 310 301 138 114 111 101 110 112 106 107 114 133 125 137 143 145 144 146 151 156 158 158 159 159 159 158 157 156 154 150 148 145 142 136 132 129 129 128 127 129 128 123 105 75 63
93 72 33 311 298 298 177 121 107 119 140 152 134 108 132 166 145 141 142 141 143 147 150 149 156 158 160 160 161 160 159 160 158 155 153 150 146 141 138 138 138 136 137 142 145 144 116 42 35
114 90 21 316 298 282 219 125 130 134 148 139 129 134 160 185 152 139 139 141 144 147 153 154 153 151 152 158 162 161 162 162 161 159 157 154 151 147 147 146 148 148 149 152 157 158 116 11 12
91 91 155 254 282 284 294 90 129 110 102 88 113 145 159 159 144 136 139 140 151 157 161 163 163 158 153 156 165 163 164 166 163 162 162 155 142 141 147 159 164 161 160 161 171 198 301 343 3
97 134 195 209 230 262 297 193 147 89 85 79 86 107 143 153 153 153 159 164 169 170 173 172 172 168 164 167 150 151 157 159 155 158 155 145 149 163 168 181 175 176 177 181 200 243 292 334 4
153 181 211 238 241 252 281 290 160 125 143 165 154 153 158 165 166 168 172 176 179 176 175 176 177 174 172 160 152 155 151 155 161 166 161 155 159 174 171 179 189 196 201 214 251 272 291 286 319
238 230 207 231 243 252 260 293 300 180 186 176 164 162 166 173 177 179 180 183 180 177 180 177 177 174 174 162 165 166 165 173 180 184 175 163 165 170 177 189 204 216 229 234 248 249 257 230 195
280 279 285 277 273 255 269 275 257 242 175 161 164 166 174 180 184 185 184 183 179 181 181 178 176 174 171 166 172 175 178 185 191 188 184 175 173 178 185 195 206 221 230 236 245 248 213 124 126
270 287 291 295 307 297 267 278 271 250 174 160 172 180 184 187 187 183 183 183 181 184 181 178 178 176 172 174 177 180 185 188 192 192 190 183 181 183 188 196 203 220 229 230 208 185 147 121 120
309 328 321 324 329 311 308 288 270 286 254 177 183 190 193 195 190 187 186 184 182 183 182 180 180 177 177 180 182 182 187 187 193 197 195 187 184 187 189 195 202 212 222 216 173 161 125 111 111
343 357 321 329 359 330 300 257 284 330 333 224 205 203 203 206 200 195 188 185 182 178 181 183 182 180 182 183 184 183 186 186 194 195 192 190 186 184 187 192 202 203 195 175 159 151 122 114 119
5 335 300 317 2 345 1 264 304 343 355 324 261 232 222 218 213 203 191 186 183 179 178 182 183 180 183 181 181 181 180 184 188 186 187 191 192 185 183 190 198 192 175 167 165 152 142 136 135
290 307 303 304 326 345 345 291 300 321 352 332 312 297 259 236 226 210 193 186 183 181 179 181 179 177 175 168 163 163 172 181 181 183 188 187 192 190 185 191 194 186 170 168 161 150 144 143 146
200 241 272 268 285 319 292 286 287 292 306 307 310 307 288 258 249 226 194 183 179 178 179 178 173 171 162 160 162 164 179 184 189 194 192 190 187 184 186 197 193 185 180 177 160 143 141 129 120
195 261 274 275 293 301 284 280 273 260 246 249 269 277 279 275 270 253 190 176 176 176 177 176 173 168 165 165 162 157 150 167 187 193 193 197 193 190 194 197 195 188 181 176 168 146 137 139 136
245 232 244 264 318 335 324 304 298 294 294 285 265 252 256 253 237 211 174 167 162 164 168 167 159 151 148 144 126 109 94 90 136 204 210 209 200 195 197 197 197 194 182 181 179 161 148 154 162
246 232 209 231 9 305 1 300 300 320 332 330 319 286 251 243 216 167 145 135 131 129 126 129 129 131 136 140 148 153 162 175 197 197 207 214 204 199 196 190 192 192 189 186 187 175 162 151 160
217 210 171 173 167 307 292 235 294 349 348 342 343 338 319 259 178 150 137 126 118 116 114 117 117 122 131 137 148 151 154 174 178 184 202 213 211 207 199 192 190 189 192 194 191 179 171 165 165
119 60 42 53 74 303 253 198 310 0 345 345 353 356 355 351 117 125 119 116 112 111 113 116 120 128 137 139 146 154 162 170 174 193 207 214 205 203 201 195 197 194 192 194 194 184 182 186 177
24 66 16 348 360 257 259 169 39 1 6 1 0 1 1 9 44 102 117 121 123 124 126 135 143 144 148 146 156 170 175 177 189 200 203 199 199 206 203 191 196 197 196 192 187 186 189 187 187
301 148 179 227 236 281 314 200 107 359 359 4 9 11 16 17 15 23 82 117 133 144 150 157 156 155 157 159 175 187 181 171 189 199 188 189 195 208 199 185 191 198 194 190 184 189 196 190 196
348 349 232 185 226 254 281 6 47 359 1 4 6 10 12 8 10 11 11 23 144 153 157 160 157 155 163 164 167 178 168 163 170 168 163 170 183 182 161 159 166 178 182 184 180 194 202 196 199
25 9 37 62 217 246 308 39 359 347 343 345 354 359 355 354 1 1 358 324 292 215 179 166 161 167 168 160 157 158 161 163 160 148 154 158 158 140 133 133 137 141 151 167 177 188 191 192 199
19 28 29 95 134 186 326 54 354 327 322 327 339 341 337 339 333 323 325 302 296 292 232 194 173 172 172 166 161 156 162 161 154 154 168 166 160 157 156 155 147 147 147 149 158 173 171 185 197
60 48 66 108 4 44 125 49 332 316 316 325 329 332 335 327 314 296 267 261 270 273 251 215 192 184 183 166 161 173 169 161 165 173 182 179 175 177 178 171 167 169 163 156 157 165 166 181 195